AEE6IM LGAV-LIMC

Flight info

Callsign AEE6IM
Flight time 2h 36m
Altitude 36000
Route KOR UL53 IXONI DCT OLGAT DCT KAPPO DCT FASAN DCT BAR DCT URIPI DCT TUFTE DCT LOMED DCT BEROK DCT MIVKI DCT GOLAS DCT MEBUR
Aircraft A320/M-SDE3FGHIRWY/LB1

Departure

Time 2026-05-05 17:36
Airport Athens Eleftherios Venizelos International Airport (LGAV)

Arrival

Time 2026-05-05 20:13
Airport Milan Malpensa International Airport (LIMC)
Time Latitude Longitude Altitude Speed Heading
2026-05-05 16:55 37.94071 23.95206 302 ft 0 kts 38°
2026-05-05 17:23 37.94057 23.95191 302 ft 4 kts 37°
2026-05-05 17:23 37.94041 23.95176 301 ft 4 kts 40°
2026-05-05 17:23 37.94026 23.95153 301 ft 4 kts 74°
2026-05-05 17:23 37.94025 23.95124 301 ft 4 kts 117°
2026-05-05 17:24 37.94029 23.95116 301 ft 0 kts 126°
2026-05-05 17:29 37.94016 23.95137 303 ft 7 kts 126°
2026-05-05 17:29 37.93974 23.95210 300 ft 12 kts 126°
2026-05-05 17:29 37.93922 23.95300 300 ft 14 kts 126°
2026-05-05 17:29 37.93887 23.95360 302 ft 3 kts 127°
2026-05-05 17:30 37.93871 23.95384 300 ft 5 kts 127°
2026-05-05 17:30 37.93841 23.95429 299 ft 8 kts 142°
2026-05-05 17:30 37.93774 23.95399 298 ft 12 kts 217°
2026-05-05 17:30 37.93704 23.95332 298 ft 13 kts 217°
2026-05-05 17:31 37.93625 23.95257 298 ft 15 kts 217°
2026-05-05 17:31 37.93537 23.95175 298 ft 16 kts 217°
2026-05-05 17:31 37.93443 23.95085 299 ft 18 kts 217°
2026-05-05 17:31 37.93341 23.94988 300 ft 19 kts 217°
2026-05-05 17:32 37.93231 23.94884 303 ft 20 kts 217°
2026-05-05 17:32 37.93115 23.94774 301 ft 22 kts 217°
2026-05-05 17:32 37.92993 23.94658 302 ft 22 kts 217°
2026-05-05 17:32 37.92866 23.94537 301 ft 23 kts 217°
2026-05-05 17:33 37.92735 23.94417 303 ft 24 kts 216°
2026-05-05 17:33 37.92625 23.94309 304 ft 16 kts 217°
2026-05-05 17:33 37.92553 23.94299 304 ft 10 kts 142°
2026-05-05 17:33 37.92529 23.94338 306 ft 0 kts 127°
2026-05-05 17:34 37.92526 23.94342 306 ft 2 kts 127°
2026-05-05 17:34 37.92508 23.94374 307 ft 6 kts 126°
2026-05-05 17:34 37.92485 23.94413 308 ft 6 kts 127°
2026-05-05 17:35 37.92483 23.94456 308 ft 6 kts 41°
2026-05-05 17:35 37.92513 23.94478 307 ft 0 kts 38°
2026-05-05 17:35 37.92545 23.94510 306 ft 30 kts 37°
2026-05-05 17:35 37.92907 23.94852 298 ft 97 kts 37°
2026-05-05 17:36 37.93593 23.95504 282 ft 147 kts 37°
2026-05-05 17:36 37.94520 23.96384 321 ft 182 kts 37°
2026-05-05 17:36 37.95505 23.97332 976 ft 177 kts 37°
2026-05-05 17:36 37.96483 23.98281 1660 ft 176 kts 38°
2026-05-05 17:37 37.97454 23.99220 2259 ft 175 kts 37°
2026-05-05 17:37 37.98425 24.00154 2797 ft 175 kts 36°
2026-05-05 17:37 37.99397 24.01078 3372 ft 174 kts 35°
2026-05-05 17:37 38.00362 24.02006 3909 ft 175 kts 35°
2026-05-05 17:38 38.01373 24.02986 4207 ft 192 kts 35°
2026-05-05 17:38 38.02470 24.04053 4528 ft 206 kts 35°
2026-05-05 17:38 38.03650 24.05205 4853 ft 221 kts 35°
2026-05-05 17:38 38.04948 24.06447 5064 ft 246 kts 32°
2026-05-05 17:39 38.06554 24.07309 5590 ft 255 kts
2026-05-05 17:39 38.08312 24.07117 6373 ft 258 kts 340°
2026-05-05 17:39 38.09795 24.05842 7122 ft 263 kts 311°
2026-05-05 17:39 38.10601 24.03728 7828 ft 275 kts 282°
2026-05-05 17:40 38.10620 24.01268 8608 ft 281 kts 271°
2026-05-05 17:40 38.10531 23.98780 9359 ft 285 kts 271°
2026-05-05 17:40 38.10443 23.96253 10110 ft 288 kts 271°
2026-05-05 17:40 38.10362 23.93653 10471 ft 305 kts 271°
2026-05-05 17:41 38.10284 23.90859 10691 ft 326 kts 271°
2026-05-05 17:41 38.10207 23.87919 11040 ft 338 kts 271°
2026-05-05 17:41 38.10122 23.84914 11642 ft 343 kts 271°
2026-05-05 17:41 38.10028 23.81868 12290 ft 347 kts 271°
2026-05-05 17:42 38.09924 23.78797 12948 ft 350 kts 271°
2026-05-05 17:42 38.09827 23.75692 13552 ft 354 kts 271°
2026-05-05 17:42 38.09737 23.72561 14130 ft 357 kts 271°
2026-05-05 17:42 38.09647 23.69406 14677 ft 359 kts 271°
2026-05-05 17:43 38.09552 23.66233 15248 ft 361 kts 271°
2026-05-05 17:43 38.09452 23.63045 15841 ft 361 kts 271°
2026-05-05 17:43 38.09347 23.59859 16457 ft 361 kts 271°
2026-05-05 17:43 38.09239 23.56707 16999 ft 364 kts 271°
2026-05-05 17:44 38.09129 23.53480 17526 ft 367 kts 271°
2026-05-05 17:44 38.09015 23.50234 18109 ft 368 kts 271°
2026-05-05 17:44 38.08896 23.46981 18657 ft 369 kts 271°
2026-05-05 17:44 38.08782 23.43717 19128 ft 372 kts 272°
2026-05-05 17:45 38.08682 23.40421 19625 ft 374 kts 272°
2026-05-05 17:45 38.08583 23.37124 20156 ft 375 kts 272°
2026-05-05 17:45 38.08480 23.33815 20670 ft 376 kts 272°
2026-05-05 17:45 38.08373 23.30495 21137 ft 377 kts 271°
2026-05-05 17:46 38.08264 23.27167 21623 ft 378 kts 272°
2026-05-05 17:46 38.08148 23.23830 22085 ft 379 kts 272°
2026-05-05 17:46 38.08030 23.20478 22542 ft 381 kts 272°
2026-05-05 17:46 38.07909 23.17113 22993 ft 383 kts 272°
2026-05-05 17:47 38.07786 23.13728 23444 ft 385 kts 272°
2026-05-05 17:47 38.07662 23.10334 23835 ft 386 kts 272°
2026-05-05 17:47 38.07540 23.06915 24199 ft 388 kts 272°
2026-05-05 17:47 38.07416 23.03487 24566 ft 390 kts 272°
2026-05-05 17:48 38.07291 23.00045 24933 ft 391 kts 272°
2026-05-05 17:48 38.07164 22.96590 25305 ft 393 kts 272°
2026-05-05 17:48 38.07037 22.93116 25670 ft 394 kts 272°
2026-05-05 17:48 38.06908 22.89630 26030 ft 396 kts 272°
2026-05-05 17:49 38.06778 22.86137 26385 ft 397 kts 272°
2026-05-05 17:49 38.06645 22.82632 26735 ft 399 kts 272°
2026-05-05 17:49 38.06510 22.79112 27076 ft 400 kts 272°
2026-05-05 17:49 38.06382 22.75581 27404 ft 401 kts 274°
2026-05-05 17:50 38.06576 22.72075 27744 ft 396 kts 284°
2026-05-05 17:50 38.07279 22.68716 28090 ft 393 kts 294°
2026-05-05 17:50 38.08459 22.65604 28422 ft 391 kts 303°
2026-05-05 17:50 38.09990 22.62747 28768 ft 392 kts 307°
2026-05-05 17:51 38.11549 22.59913 29210 ft 391 kts 306°
2026-05-05 17:51 38.13123 22.57108 29697 ft 389 kts 308°
2026-05-05 17:51 38.14760 22.54384 30169 ft 387 kts 309°
2026-05-05 17:51 38.16416 22.51749 30603 ft 385 kts 310°
2026-05-05 17:52 38.18105 22.49113 31023 ft 383 kts 311°
2026-05-05 17:52 38.19781 22.46497 31448 ft 381 kts 311°
2026-05-05 17:52 38.21440 22.43889 31877 ft 379 kts 310°
2026-05-05 17:52 38.23086 22.41272 32314 ft 377 kts 310°
2026-05-05 17:53 38.24712 22.38662 32729 ft 375 kts 310°
2026-05-05 17:53 38.26330 22.36050 33137 ft 374 kts 310°
2026-05-05 17:53 38.27936 22.33452 33551 ft 373 kts 310°
2026-05-05 17:53 38.29541 22.30862 33990 ft 371 kts 311°
2026-05-05 17:54 38.31135 22.28289 34381 ft 369 kts 310°
2026-05-05 17:54 38.32724 22.25722 34703 ft 368 kts 310°
2026-05-05 17:54 38.34287 22.23197 34975 ft 368 kts 310°
2026-05-05 17:54 38.35872 22.20637 35253 ft 368 kts 310°
2026-05-05 17:55 38.37458 22.18075 35521 ft 368 kts 310°
2026-05-05 17:55 38.39044 22.15509 35769 ft 368 kts 309°
2026-05-05 17:55 38.40625 22.12944 36003 ft 368 kts 309°
2026-05-05 17:56 38.43820 22.07754 36115 ft 378 kts 309°
2026-05-05 17:56 38.47110 22.02408 36120 ft 385 kts 309°
2026-05-05 17:57 38.50416 21.97019 36121 ft 386 kts 308°
2026-05-05 17:57 38.53717 21.91632 36125 ft 385 kts 308°
2026-05-05 17:58 38.57019 21.86239 36122 ft 385 kts 308°
2026-05-05 17:58 38.60325 21.80840 36123 ft 386 kts 308°
2026-05-05 17:59 38.63627 21.75431 36113 ft 386 kts 308°
2026-05-05 17:59 38.66934 21.70004 36112 ft 387 kts 308°
2026-05-05 18:00 38.70248 21.64554 36116 ft 388 kts 308°
2026-05-05 18:00 38.73552 21.59094 36122 ft 388 kts 308°
2026-05-05 18:01 38.76841 21.53659 36129 ft 388 kts 308°
2026-05-05 18:01 38.80160 21.48189 36134 ft 388 kts 308°
2026-05-05 18:02 38.83466 21.42701 36135 ft 388 kts 308°
2026-05-05 18:02 38.86773 21.37212 36144 ft 388 kts 308°
2026-05-05 18:03 38.90071 21.31726 36144 ft 388 kts 308°
2026-05-05 18:03 38.93372 21.26235 36159 ft 388 kts 308°
2026-05-05 18:04 38.96671 21.20748 36147 ft 388 kts 308°
2026-05-05 18:04 38.99963 21.15259 36147 ft 388 kts 308°
2026-05-05 18:05 39.03247 21.09760 36124 ft 388 kts 307°
2026-05-05 18:05 39.06539 21.04235 36127 ft 389 kts 307°
2026-05-05 18:06 39.09835 20.98714 36137 ft 389 kts 307°
2026-05-05 18:06 39.12572 20.94117 36137 ft 389 kts 307°
2026-05-05 18:07 39.15866 20.88566 36137 ft 389 kts 307°
2026-05-05 18:07 39.19153 20.83015 36142 ft 389 kts 307°
2026-05-05 18:08 39.22436 20.77458 36126 ft 389 kts 307°
2026-05-05 18:08 39.25696 20.71937 36133 ft 390 kts 307°
2026-05-05 18:09 39.28989 20.66369 36139 ft 391 kts 307°
2026-05-05 18:09 39.32287 20.60780 36148 ft 391 kts 307°
2026-05-05 18:10 39.35575 20.55184 36148 ft 391 kts 307°
2026-05-05 18:10 39.38856 20.49584 36151 ft 391 kts 307°
2026-05-05 18:11 39.42136 20.43978 36144 ft 391 kts 307°
2026-05-05 18:11 39.45421 20.38356 36138 ft 392 kts 307°
2026-05-05 18:12 39.48706 20.32728 36136 ft 392 kts 307°
2026-05-05 18:12 39.51993 20.27084 36131 ft 392 kts 307°
2026-05-05 18:13 39.55274 20.21441 36139 ft 392 kts 307°
2026-05-05 18:13 39.58536 20.15818 36138 ft 393 kts 307°
2026-05-05 18:14 39.61813 20.10155 36115 ft 393 kts 306°
2026-05-05 18:14 39.65099 20.04469 36116 ft 394 kts 306°
2026-05-05 18:15 39.68392 19.98781 36121 ft 394 kts 306°
2026-05-05 18:15 39.71684 19.93079 36118 ft 395 kts 306°
2026-05-05 18:16 39.74966 19.87361 36125 ft 395 kts 306°
2026-05-05 18:16 39.78244 19.81633 36130 ft 395 kts 306°
2026-05-05 18:17 39.81538 19.75901 36126 ft 395 kts 306°
2026-05-05 18:17 39.84826 19.70169 36125 ft 395 kts 306°
2026-05-05 18:18 39.88109 19.64421 36135 ft 396 kts 306°
2026-05-05 18:18 39.91388 19.58659 36136 ft 396 kts 306°
2026-05-05 18:19 39.94648 19.52923 36131 ft 397 kts 306°
2026-05-05 18:19 39.97932 19.47138 36133 ft 397 kts 306°
2026-05-05 18:20 40.01214 19.41340 36123 ft 397 kts 306°
2026-05-05 18:20 40.04487 19.35548 36119 ft 397 kts 306°
2026-05-05 18:21 40.07765 19.29750 36126 ft 397 kts 306°
2026-05-05 18:21 40.11040 19.23951 36128 ft 396 kts 306°
2026-05-05 18:22 40.14298 19.18140 36122 ft 396 kts 306°
2026-05-05 18:22 40.17563 19.12330 36142 ft 396 kts 306°
2026-05-05 18:23 40.20801 19.06563 36126 ft 395 kts 305°
2026-05-05 18:23 40.24035 19.00748 36122 ft 394 kts 302°
2026-05-05 18:24 40.26571 18.94400 36117 ft 394 kts 296°
2026-05-05 18:24 40.28965 18.87947 36116 ft 394 kts 296°
2026-05-05 18:25 40.31360 18.81491 36110 ft 394 kts 296°
2026-05-05 18:25 40.33753 18.75036 36111 ft 394 kts 296°
2026-05-05 18:26 40.36141 18.68580 36109 ft 393 kts 296°
2026-05-05 18:26 40.38520 18.62123 36108 ft 392 kts 296°
2026-05-05 18:27 40.40895 18.55688 36103 ft 392 kts 296°
2026-05-05 18:27 40.43264 18.49252 36100 ft 391 kts 296°
2026-05-05 18:28 40.46799 18.39586 36088 ft 392 kts 296°
2026-05-05 18:28 40.49154 18.33133 36091 ft 392 kts 296°
2026-05-05 18:29 40.51517 18.26663 36083 ft 392 kts 296°
2026-05-05 18:29 40.53861 18.20238 36091 ft 392 kts 296°
2026-05-05 18:30 40.56223 18.13726 36081 ft 392 kts 296°
2026-05-05 18:30 40.58546 18.07298 36082 ft 392 kts 296°
2026-05-05 18:31 40.60883 18.00824 36076 ft 392 kts 296°
2026-05-05 18:31 40.63463 17.94515 36073 ft 391 kts 300°
2026-05-05 18:32 40.66271 17.88375 36071 ft 391 kts 301°
2026-05-05 18:32 40.69070 17.82230 36074 ft 391 kts 300°
2026-05-05 18:33 40.71819 17.76040 36087 ft 391 kts 300°
2026-05-05 18:33 40.74544 17.69823 36088 ft 391 kts 299°
2026-05-05 18:34 40.77262 17.63601 36086 ft 391 kts 300°
2026-05-05 18:34 40.79985 17.57387 36084 ft 391 kts 300°
2026-05-05 18:35 40.82698 17.51165 36085 ft 391 kts 299°
2026-05-05 18:35 40.85406 17.44942 36090 ft 391 kts 299°
2026-05-05 18:36 40.88119 17.38720 36089 ft 390 kts 299°
2026-05-05 18:36 40.90827 17.32506 36086 ft 390 kts 299°
2026-05-05 18:37 40.93510 17.26320 36089 ft 390 kts 299°
2026-05-05 18:37 40.96206 17.20093 36085 ft 390 kts 299°
2026-05-05 18:38 40.98897 17.13858 36085 ft 390 kts 299°
2026-05-05 18:38 41.01589 17.07619 36073 ft 390 kts 299°
2026-05-05 18:39 41.04275 17.01386 36067 ft 390 kts 299°
2026-05-05 18:39 41.06956 16.95127 36069 ft 390 kts 299°
2026-05-05 18:40 41.09634 16.88867 36063 ft 391 kts 299°
2026-05-05 18:40 41.12314 16.82598 36067 ft 391 kts 299°
2026-05-05 18:41 41.14997 16.76328 36069 ft 391 kts 300°
2026-05-05 18:41 41.17837 16.70176 36073 ft 391 kts 302°
2026-05-05 18:42 41.20772 16.64096 36072 ft 391 kts 301°
2026-05-05 18:42 41.23683 16.57983 36069 ft 392 kts 301°
2026-05-05 18:43 41.26561 16.51837 36069 ft 392 kts 301°
2026-05-05 18:43 41.29434 16.45683 36067 ft 392 kts 301°
2026-05-05 18:44 41.32312 16.39528 36065 ft 392 kts 301°
2026-05-05 18:44 41.35182 16.33363 36064 ft 392 kts 300°
2026-05-05 18:45 41.38026 16.27216 36056 ft 392 kts 300°
2026-05-05 18:45 41.40886 16.21022 36053 ft 393 kts 300°
2026-05-05 18:46 41.43755 16.14827 36063 ft 393 kts 300°
2026-05-05 18:46 41.46623 16.08626 36061 ft 393 kts 300°
2026-05-05 18:47 41.49482 16.02414 36072 ft 393 kts 300°
2026-05-05 18:47 41.52333 15.96203 36065 ft 393 kts 300°
2026-05-05 18:48 41.55186 15.89976 36073 ft 393 kts 300°
2026-05-05 18:48 41.58020 15.83790 36071 ft 393 kts 300°
2026-05-05 18:49 41.60870 15.77568 36077 ft 393 kts 300°
2026-05-05 18:49 41.63713 15.71333 36073 ft 393 kts 299°
2026-05-05 18:50 41.66552 15.65085 36071 ft 393 kts 299°
2026-05-05 18:50 41.69384 15.58844 36071 ft 393 kts 299°
2026-05-05 18:51 41.72221 15.52595 36060 ft 393 kts 299°
2026-05-05 18:51 41.75054 15.46328 36050 ft 393 kts 299°
2026-05-05 18:52 41.77885 15.40060 36044 ft 393 kts 299°
2026-05-05 18:52 41.80711 15.33787 36037 ft 393 kts 298°
2026-05-05 18:53 41.83532 15.27504 36043 ft 393 kts 298°
2026-05-05 18:53 41.86352 15.21219 36036 ft 393 kts 298°
2026-05-05 18:54 41.88710 15.16010 36036 ft 393 kts 299°
2026-05-05 18:54 41.92185 15.08842 36035 ft 394 kts 300°
2026-05-05 18:55 41.95204 15.02705 36031 ft 394 kts 300°
2026-05-05 18:55 41.97707 14.97539 36031 ft 394 kts 300°
2026-05-05 18:56 42.00669 14.91351 36041 ft 394 kts 300°
2026-05-05 18:56 42.03617 14.85198 36036 ft 394 kts 299°
2026-05-05 18:57 42.06581 14.78996 36037 ft 394 kts 299°
2026-05-05 18:57 42.09547 14.72789 36031 ft 394 kts 299°
2026-05-05 18:58 42.12511 14.66575 36028 ft 394 kts 299°
2026-05-05 18:58 42.15470 14.60357 36033 ft 394 kts 299°
2026-05-05 18:59 42.18425 14.54131 36030 ft 394 kts 299°
2026-05-05 18:59 42.21374 14.47892 36037 ft 394 kts 299°
2026-05-05 19:00 42.24317 14.41653 36039 ft 394 kts 299°
2026-05-05 19:00 42.27243 14.35451 36043 ft 394 kts 299°
2026-05-05 19:01 42.30185 14.29212 36044 ft 394 kts 299°
2026-05-05 19:01 42.33123 14.22961 36042 ft 394 kts 299°
2026-05-05 19:02 42.36056 14.16697 36064 ft 394 kts 298°
2026-05-05 19:02 42.38983 14.10431 36057 ft 394 kts 298°
2026-05-05 19:03 42.41904 14.04166 36051 ft 393 kts 298°
2026-05-05 19:03 42.44824 13.97897 36046 ft 393 kts 298°
2026-05-05 19:04 42.47736 13.91626 36047 ft 393 kts 298°
2026-05-05 19:04 42.50643 13.85351 36051 ft 393 kts 298°
2026-05-05 19:05 42.53556 13.79068 36045 ft 394 kts 298°
2026-05-05 19:05 42.56464 13.72777 36046 ft 394 kts 298°
2026-05-05 19:06 42.59367 13.66473 36045 ft 394 kts 297°
2026-05-05 19:06 42.62266 13.60159 36062 ft 394 kts 298°
2026-05-05 19:07 42.65163 13.53834 36055 ft 395 kts 298°
2026-05-05 19:07 42.68065 13.47496 36067 ft 395 kts 298°
2026-05-05 19:08 42.71398 13.41483 36057 ft 399 kts 302°
2026-05-05 19:08 42.74788 13.35503 36048 ft 399 kts 302°
2026-05-05 19:09 42.78145 13.29562 36055 ft 399 kts 302°
2026-05-05 19:09 42.81534 13.23566 36058 ft 400 kts 302°
2026-05-05 19:10 42.84919 13.17555 36049 ft 399 kts 302°
2026-05-05 19:10 42.88292 13.11549 36078 ft 399 kts 302°
2026-05-05 19:11 42.91676 13.05518 36068 ft 401 kts 302°
2026-05-05 19:11 42.95069 12.99469 36058 ft 401 kts 302°
2026-05-05 19:12 42.98452 12.93403 36060 ft 402 kts 302°
2026-05-05 19:12 43.01835 12.87323 36055 ft 402 kts 302°
2026-05-05 19:13 43.05218 12.81249 36062 ft 402 kts 302°
2026-05-05 19:13 43.08596 12.75163 36074 ft 402 kts 301°
2026-05-05 19:14 43.11971 12.69064 36073 ft 402 kts 301°
2026-05-05 19:14 43.15353 12.62955 36092 ft 403 kts 302°
2026-05-05 19:15 43.18736 12.56839 36083 ft 403 kts 302°
2026-05-05 19:15 43.22116 12.50708 36077 ft 403 kts 301°
2026-05-05 19:16 43.25484 12.44572 36069 ft 403 kts 301°
2026-05-05 19:16 43.28852 12.38420 36088 ft 403 kts 301°
2026-05-05 19:17 43.32215 12.32272 36071 ft 402 kts 301°
2026-05-05 19:17 43.35570 12.26122 36059 ft 402 kts 301°
2026-05-05 19:18 43.38925 12.19971 36062 ft 402 kts 301°
2026-05-05 19:18 43.42273 12.13818 36054 ft 401 kts 301°
2026-05-05 19:19 43.45611 12.07661 36053 ft 401 kts 301°
2026-05-05 19:19 43.48947 12.01507 36067 ft 401 kts 301°
2026-05-05 19:20 43.52248 11.95390 36054 ft 401 kts 301°
2026-05-05 19:20 43.55568 11.89227 36033 ft 401 kts 301°
2026-05-05 19:21 43.58890 11.83054 36036 ft 401 kts 301°
2026-05-05 19:21 43.62206 11.76880 36046 ft 400 kts 300°
2026-05-05 19:22 43.65516 11.70699 36035 ft 401 kts 300°
2026-05-05 19:22 43.68826 11.64498 36052 ft 401 kts 300°
2026-05-05 19:23 43.72139 11.58279 36037 ft 402 kts 300°
2026-05-05 19:23 43.75461 11.52056 36032 ft 403 kts 300°
2026-05-05 19:24 43.78780 11.45812 36029 ft 403 kts 300°
2026-05-05 19:24 43.82098 11.39564 36022 ft 403 kts 300°
2026-05-05 19:25 43.85409 11.33319 36020 ft 402 kts 300°
2026-05-05 19:25 43.88715 11.27049 36040 ft 403 kts 298°
2026-05-05 19:26 43.92017 11.20759 36027 ft 404 kts 298°
2026-05-05 19:26 43.95318 11.14453 36022 ft 404 kts 298°
2026-05-05 19:27 43.98630 11.08136 36020 ft 404 kts 298°
2026-05-05 19:27 44.01852 11.01876 35976 ft 386 kts 294°
2026-05-05 19:28 44.03043 10.98592 35857 ft 375 kts 285°
2026-05-05 19:28 44.03850 10.95178 35623 ft 370 kts 281°
2026-05-05 19:28 44.04581 10.91754 35377 ft 370 kts 281°
2026-05-05 19:28 44.05312 10.88328 35129 ft 370 kts 281°
2026-05-05 19:29 44.06037 10.84942 34909 ft 370 kts 280°
2026-05-05 19:29 44.06770 10.81516 34665 ft 370 kts 280°
2026-05-05 19:29 44.07503 10.78080 34416 ft 370 kts 280°
2026-05-05 19:29 44.08234 10.74653 34183 ft 370 kts 280°
2026-05-05 19:30 44.08966 10.71214 33942 ft 371 kts 280°
2026-05-05 19:30 44.09699 10.67771 33667 ft 371 kts 280°
2026-05-05 19:30 44.10429 10.64324 33393 ft 372 kts 280°
2026-05-05 19:30 44.11161 10.60862 33127 ft 373 kts 280°
2026-05-05 19:31 44.11895 10.57389 32866 ft 375 kts 280°
2026-05-05 19:31 44.12629 10.53908 32614 ft 375 kts 280°
2026-05-05 19:31 44.13361 10.50426 32343 ft 373 kts 279°
2026-05-05 19:31 44.14091 10.46953 31647 ft 375 kts 279°
2026-05-05 19:32 44.14821 10.43462 31047 ft 376 kts 280°
2026-05-05 19:32 44.15550 10.39970 30510 ft 374 kts 280°
2026-05-05 19:32 44.16280 10.36493 30007 ft 372 kts 280°
2026-05-05 19:32 44.17003 10.33073 29705 ft 364 kts 280°
2026-05-05 19:33 44.17716 10.29701 29389 ft 362 kts 280°
2026-05-05 19:33 44.18421 10.26340 29093 ft 361 kts 280°
2026-05-05 19:33 44.19124 10.22982 28816 ft 361 kts 280°
2026-05-05 19:33 44.19823 10.19623 28560 ft 360 kts 280°
2026-05-05 19:34 44.20517 10.16276 28285 ft 359 kts 279°
2026-05-05 19:34 44.21208 10.12937 28033 ft 358 kts 279°
2026-05-05 19:34 44.21943 10.09608 27896 ft 361 kts 284°
2026-05-05 19:35 44.24704 10.03603 27633 ft 376 kts 302°
2026-05-05 19:35 44.26375 10.00798 27501 ft 377 kts 302°
2026-05-05 19:35 44.28057 9.97993 27365 ft 376 kts 302°
2026-05-05 19:35 44.29722 9.95234 27238 ft 376 kts 302°
2026-05-05 19:36 44.31428 9.92406 27113 ft 376 kts 302°
2026-05-05 19:36 44.33111 9.89609 26984 ft 376 kts 302°
2026-05-05 19:36 44.34768 9.86844 26862 ft 376 kts 302°
2026-05-05 19:36 44.36464 9.84004 26722 ft 376 kts 302°
2026-05-05 19:37 44.38119 9.81232 26556 ft 375 kts 302°
2026-05-05 19:37 44.39787 9.78443 26302 ft 373 kts 302°
2026-05-05 19:37 44.41450 9.75664 26052 ft 372 kts 302°
2026-05-05 19:37 44.43110 9.72880 25804 ft 371 kts 302°
2026-05-05 19:38 44.44761 9.70108 25558 ft 371 kts 302°
2026-05-05 19:38 44.46413 9.67332 25310 ft 369 kts 302°
2026-05-05 19:38 44.48042 9.64603 25064 ft 362 kts 302°
2026-05-05 19:38 44.49640 9.61926 24824 ft 355 kts 302°
2026-05-05 19:39 44.51215 9.59272 24585 ft 353 kts 302°
2026-05-05 19:39 44.52780 9.56622 24344 ft 352 kts 302°
2026-05-05 19:39 44.54339 9.53979 24116 ft 352 kts 302°
2026-05-05 19:39 44.55898 9.51338 23888 ft 351 kts 302°
2026-05-05 19:40 44.56930 9.49592 23728 ft 351 kts 302°
2026-05-05 19:40 44.58489 9.46957 23490 ft 351 kts 303°
2026-05-05 19:40 44.60044 9.44323 23246 ft 351 kts 302°
2026-05-05 19:40 44.61596 9.41687 22974 ft 350 kts 302°
2026-05-05 19:41 44.63146 9.39054 22712 ft 349 kts 302°
2026-05-05 19:41 44.64692 9.36424 22442 ft 348 kts 302°
2026-05-05 19:41 44.66227 9.33811 22176 ft 346 kts 302°
2026-05-05 19:41 44.67757 9.31212 21912 ft 344 kts 302°
2026-05-05 19:42 44.69281 9.28623 21650 ft 343 kts 303°
2026-05-05 19:42 44.70797 9.26041 21393 ft 342 kts 303°
2026-05-05 19:42 44.72304 9.23464 21134 ft 340 kts 302°
2026-05-05 19:42 44.73802 9.20904 20762 ft 338 kts 303°
2026-05-05 19:43 44.75291 9.18355 20358 ft 336 kts 302°
2026-05-05 19:43 44.76608 9.15685 19965 ft 329 kts 294°
2026-05-05 19:43 44.77757 9.12913 19584 ft 327 kts 294°
2026-05-05 19:43 44.78905 9.10153 19171 ft 326 kts 294°
2026-05-05 19:44 44.80052 9.07402 18779 ft 325 kts 294°
2026-05-05 19:44 44.81200 9.04651 18388 ft 324 kts 294°
2026-05-05 19:44 44.82341 9.01913 17963 ft 323 kts 294°
2026-05-05 19:44 44.83473 8.99194 17567 ft 320 kts 294°
2026-05-05 19:45 44.84594 8.96497 17185 ft 318 kts 295°
2026-05-05 19:45 44.85711 8.93809 16803 ft 317 kts 295°
2026-05-05 19:45 44.86821 8.91135 16428 ft 315 kts 295°
2026-05-05 19:45 44.87921 8.88477 16060 ft 313 kts 295°
2026-05-05 19:46 44.89016 8.85828 15690 ft 312 kts 295°
2026-05-05 19:46 44.90104 8.83197 15367 ft 309 kts 295°
2026-05-05 19:46 44.91185 8.80581 15002 ft 307 kts 295°
2026-05-05 19:46 44.92260 8.77980 14616 ft 308 kts 296°
2026-05-05 19:47 44.93331 8.75384 14297 ft 305 kts 296°
2026-05-05 19:47 44.94396 8.72798 13985 ft 303 kts 296°
2026-05-05 19:47 44.95452 8.70228 13628 ft 299 kts 296°
2026-05-05 19:47 44.96487 8.67704 13196 ft 295 kts 296°
2026-05-05 19:48 44.97514 8.65202 12763 ft 294 kts 296°
2026-05-05 19:48 44.98547 8.62717 12423 ft 294 kts 300°
2026-05-05 19:48 44.99878 8.60516 12070 ft 297 kts 315°
2026-05-05 19:48 45.01592 8.58884 11955 ft 301 kts 331°
2026-05-05 19:49 45.03591 8.57924 11971 ft 307 kts 346°
2026-05-05 19:49 45.05694 8.57344 11970 ft 309 kts 346°
2026-05-05 19:49 45.07803 8.56765 11843 ft 308 kts 346°
2026-05-05 19:49 45.09906 8.56184 11718 ft 307 kts 346°
2026-05-05 19:50 45.12003 8.55602 11491 ft 307 kts 346°
2026-05-05 19:50 45.14089 8.55021 11241 ft 305 kts 346°
2026-05-05 19:50 45.16168 8.54440 10989 ft 303 kts 346°
2026-05-05 19:50 45.18233 8.53865 10672 ft 302 kts 346°
2026-05-05 19:51 45.20231 8.53311 10543 ft 288 kts 346°
2026-05-05 19:51 45.22135 8.52790 10394 ft 272 kts 346°
2026-05-05 19:51 45.23966 8.52289 10059 ft 266 kts 346°
2026-05-05 19:51 45.25777 8.51788 9637 ft 264 kts 347°
2026-05-05 19:52 45.27569 8.51285 9206 ft 261 kts 347°
2026-05-05 19:52 45.29346 8.50793 8783 ft 259 kts 349°
2026-05-05 19:52 45.31125 8.50927 8453 ft 259 kts 19°
2026-05-05 19:52 45.32626 8.52266 8179 ft 255 kts 49°
2026-05-05 19:53 45.33460 8.54434 7767 ft 250 kts 78°
2026-05-05 19:53 45.33807 8.56862 7330 ft 252 kts 81°
2026-05-05 19:53 45.34134 8.59303 7028 ft 251 kts 81°
2026-05-05 19:53 45.34451 8.61734 6768 ft 249 kts 85°
2026-05-05 19:54 45.34274 8.64115 6500 ft 241 kts 115°
2026-05-05 19:54 45.33314 8.65989 6198 ft 234 kts 145°
2026-05-05 19:54 45.31867 8.66926 6026 ft 230 kts 170°
2026-05-05 19:54 45.30289 8.67358 6006 ft 232 kts 171°
2026-05-05 19:55 45.28701 8.67792 6006 ft 233 kts 170°
2026-05-05 19:55 45.27113 8.68230 6008 ft 232 kts 170°
2026-05-05 19:55 45.25525 8.68670 6007 ft 232 kts 170°
2026-05-05 19:55 45.23936 8.69107 6004 ft 233 kts 170°
2026-05-05 19:56 45.22347 8.69545 6006 ft 233 kts 170°
2026-05-05 19:56 45.20756 8.69982 6001 ft 233 kts 170°
2026-05-05 19:56 45.19165 8.70419 5980 ft 233 kts 170°
2026-05-05 19:56 45.17575 8.70854 5981 ft 230 kts 170°
2026-05-05 19:57 45.16037 8.71279 5978 ft 222 kts 170°
2026-05-05 19:57 45.14519 8.71698 5983 ft 221 kts 170°
2026-05-05 19:57 45.13009 8.72115 5984 ft 221 kts 170°
2026-05-05 19:57 45.11497 8.72532 5980 ft 222 kts 170°
2026-05-05 19:58 45.10004 8.72946 5982 ft 221 kts 169°
2026-05-05 19:58 45.08499 8.73370 5980 ft 220 kts 169°
2026-05-05 19:58 45.06976 8.73798 5984 ft 220 kts 169°
2026-05-05 19:58 45.05493 8.74217 5980 ft 220 kts 169°
2026-05-05 19:59 45.03989 8.74643 5986 ft 220 kts 169°
2026-05-05 19:59 45.02488 8.75066 5982 ft 220 kts 169°
2026-05-05 19:59 45.00989 8.75486 5984 ft 220 kts 169°
2026-05-05 19:59 44.99487 8.75908 5977 ft 220 kts 169°
2026-05-05 20:00 44.97987 8.76333 5978 ft 220 kts 169°
2026-05-05 20:00 44.96486 8.76759 5977 ft 220 kts 169°
2026-05-05 20:00 44.95082 8.77570 5979 ft 222 kts 142°
2026-05-05 20:00 44.94206 8.79350 5981 ft 226 kts 108°
2026-05-05 20:01 44.94172 8.81574 5971 ft 234 kts 76°
2026-05-05 20:01 44.95002 8.83573 5976 ft 241 kts 49°
2026-05-05 20:01 44.96288 8.85093 5975 ft 243 kts 27°
2026-05-05 20:01 44.97902 8.85726 5976 ft 242 kts 359°
2026-05-05 20:02 44.99577 8.85543 5977 ft 242 kts 352°
2026-05-05 20:02 45.01250 8.85288 5982 ft 242 kts 352°
2026-05-05 20:02 45.02927 8.85026 5982 ft 242 kts 352°
2026-05-05 20:02 45.04601 8.84766 5984 ft 242 kts 352°
2026-05-05 20:03 45.06267 8.84506 5982 ft 240 kts 352°
2026-05-05 20:03 45.07929 8.84247 5989 ft 240 kts 353°
2026-05-05 20:03 45.09577 8.83991 5981 ft 237 kts 353°
2026-05-05 20:03 45.11219 8.83739 5981 ft 237 kts 353°
2026-05-05 20:04 45.12858 8.83487 5981 ft 237 kts 353°
2026-05-05 20:04 45.14502 8.83235 5981 ft 237 kts 353°
2026-05-05 20:04 45.16142 8.82981 5983 ft 237 kts 353°
2026-05-05 20:04 45.17782 8.82725 5984 ft 237 kts 353°
2026-05-05 20:05 45.19421 8.82470 5982 ft 237 kts 353°
2026-05-05 20:05 45.21061 8.82215 5985 ft 237 kts 353°
2026-05-05 20:05 45.22702 8.81960 5981 ft 237 kts 353°
2026-05-05 20:05 45.24341 8.81703 6002 ft 237 kts 353°
2026-05-05 20:06 45.25983 8.81447 6004 ft 237 kts 353°
2026-05-05 20:06 45.27624 8.81192 6005 ft 237 kts 353°
2026-05-05 20:06 45.29267 8.80938 6006 ft 237 kts 353°
2026-05-05 20:06 45.30912 8.80683 5993 ft 238 kts 353°
2026-05-05 20:07 45.32553 8.80428 5802 ft 235 kts 353°
2026-05-05 20:07 45.34160 8.80177 5622 ft 229 kts 353°
2026-05-05 20:07 45.35712 8.79934 5445 ft 226 kts 353°
2026-05-05 20:07 45.37272 8.79690 5273 ft 225 kts 353°
2026-05-05 20:08 45.38822 8.79447 5094 ft 222 kts 353°
2026-05-05 20:08 45.40326 8.79315 4953 ft 211 kts 358°
2026-05-05 20:08 45.41758 8.79137 4692 ft 203 kts 351°
2026-05-05 20:08 45.43128 8.78813 4420 ft 196 kts 349°
2026-05-05 20:09 45.44449 8.78459 4164 ft 191 kts 349°
2026-05-05 20:09 45.45733 8.78108 3913 ft 186 kts 349°
2026-05-05 20:09 45.47000 8.77761 3659 ft 185 kts 349°
2026-05-05 20:09 45.48258 8.77416 3422 ft 184 kts 349°
2026-05-05 20:10 45.49514 8.77071 3175 ft 183 kts 350°
2026-05-05 20:10 45.50760 8.76728 2929 ft 182 kts 350°
2026-05-05 20:10 45.52004 8.76387 2686 ft 182 kts 350°
2026-05-05 20:10 45.53245 8.76045 2443 ft 181 kts 351°
2026-05-05 20:11 45.54467 8.75709 2200 ft 179 kts 351°
2026-05-05 20:11 45.55633 8.75387 1981 ft 161 kts 351°
2026-05-05 20:11 45.56696 8.75094 1755 ft 151 kts 351°
2026-05-05 20:11 45.57714 8.74814 1538 ft 146 kts 350°
2026-05-05 20:12 45.58700 8.74542 1331 ft 143 kts 350°
2026-05-05 20:12 45.59664 8.74278 1120 ft 140 kts 349°
2026-05-05 20:12 45.60612 8.74016 965 ft 138 kts 348°
2026-05-05 20:12 45.61556 8.73756 806 ft 138 kts 349°
2026-05-05 20:13 45.62448 8.73507 747 ft 107 kts 349°
2026-05-05 20:13 45.62928 8.73380 743 ft 35 kts 346°
2026-05-05 20:13 45.63117 8.73271 744 ft 23 kts 328°
2026-05-05 20:13 45.63221 8.73144 749 ft 18 kts 315°
2026-05-05 20:14 45.63295 8.72995 748 ft 19 kts 304°
2026-05-05 20:14 45.63365 8.72848 750 ft 14 kts 304°
2026-05-05 20:14 45.63408 8.72710 751 ft 16 kts 284°
2026-05-05 20:14 45.63396 8.72555 750 ft 16 kts 259°
2026-05-05 20:15 45.63373 8.72382 747 ft 20 kts 261°
2026-05-05 20:15 45.63345 8.72184 743 ft 21 kts 259°
2026-05-05 20:15 45.63327 8.72044 749 ft 4 kts 257°
2026-05-05 20:15 45.63321 8.72008 750 ft 4 kts 257°
2026-05-05 20:16 45.63302 8.71974 749 ft 6 kts 224°
2026-05-05 20:16 45.63260 8.71972 750 ft 7 kts 171°
2026-05-05 20:16 45.63203 8.71988 750 ft 9 kts 169°
2026-05-05 20:16 45.63132 8.72009 750 ft 12 kts 168°
2026-05-05 20:17 45.63031 8.72036 748 ft 17 kts 169°
2026-05-05 20:17 45.62909 8.72070 752 ft 19 kts 169°
2026-05-05 20:17 45.62770 8.72109 751 ft 22 kts 168°
2026-05-05 20:17 45.62686 8.72088 747 ft 11 kts 245°
2026-05-05 20:18 45.62677 8.72034 751 ft 4 kts 266°
2026-05-05 20:18 45.62669 8.71970 749 ft 8 kts 259°
2026-05-05 20:18 45.62657 8.71882 749 ft 10 kts 259°
2026-05-05 20:18 45.62615 8.71839 751 ft 9 kts 170°
2026-05-05 20:19 45.62589 8.71846 750 ft 1 kts 168°
2026-05-05 20:19 45.62589 8.71847 750 ft 0 kts 168°
2026-05-05 20:19 45.62585 8.71850 751 ft 1 kts 153°
2026-05-05 20:20 45.62580 8.71871 752 ft 3 kts 94°
2026-05-05 20:20 45.62589 8.71909 750 ft 5 kts 78°
2026-05-05 20:20 45.62595 8.71953 753 ft 0 kts 79°